RH
62 57 60 68 73 82 84 86 95 88 85 73 74 65 51 42 34 30 30 32 33 34 35 36 43 54 60 58 61 65 72 79 74 80 88 98 88 89
72 72 72 75 83 81 90 94 97 98 100 86 80 83 82 81 75 74 82 87 87 84 82 82 83 89 88 82 90 88 83 80 85 97 99 92 87 81
82 82 90 86 87 93 95 91 92 93 100 100 100 100 98 100 100 100 100 100 99 92 88 96 99 98 95 88 95 100 95 100 100 100 99 89 82 82
85 78 80 80 89 94 85 84 91 96 89 95 100 100 100 100 100 100 100 100 100 100 100 100 100 100 95 92 99 94 96 96 93 91 86 86 83 78
80 72 76 69 79 88 91 86 82 76 78 80 91 100 100 100 100 100 100 100 100 100 98 100 91 94 89 89 94 93 91 100 80 85 84 85 86 84
74 79 84 87 90 92 92 87 83 89 87 90 90 95 98 100 100 100 100 100 99 99 94 99 98 96 93 90 98 100 100 100 100 100 100 97 96 96
95 98 96 96 96 99 97 100 100 98 92 90 94 90 98 87 92 91 96 95 99 86 98 90 75 92 76 89 99 93 96 100 100 100 100 98 100 100
92 86 96 99 100 99 97 100 99 93 89 94 96 94 100 89 95 83 83 48 60 82 99 78 85 83 82 82 81 79 75 90 94 98 95 100 92 81
89 98 100 100 100 99 93 98 100 100 100 100 96 100 97 100 99 70 92 83 70 85 87 62 59 56 74 77 78 83 88 95 87 87 91 78 77 74
85 85 91 97 97 99 100 100 100 100 100 100 100 100 100 100 100 100 100 96 89 92 95 90 63 71 78 89 95 79 78 82 75 70 81 70 86 99
76 78 81 78 76 75 71 80 80 91 100 100 100 100 100 100 100 100 100 100 100 100 100 100 100 100 100 100 99 98 80 83 87 87 93 100 100 100
54 61 60 59 62 63 67 74 80 84 85 88 87 85 90 98 100 100 99 91 100 100 100 100 100 98 86 79 76 64 76 92 97 100 100 100 100 99
60 64 66 72 75 81 82 82 83 85 87 86 90 90 87 84 84 84 85 82 80 88 93 88 87 87 77 68 75 83 87 92 95 100 96 87 91 98
92 96 95 94 94 93 89 88 85 80 83 91 91 89 90 89 85 75 59 56 64 66 62 64 62 60 62 56 60 69 77 73 76 85 92 97 97 87
76 84 83 80 77 78 80 78 70 63 62 66 66 65 64 62 62 62 62 60 62 68 77 80 79 67 58 59 56 58 58 68 67 73 92 94 91 92
64 62 60 61 60 61 60 61 61 60 61 61 62 59 58 58 58 60 64 72 76 82 82 83 86 86 87 81 84 84 83 79 83 91 95 99 100 100
97 96 97 98 100 99 99 98 96 93 92 92 93 93 93 91 91 87 83 81 80 82 87 94 89 83 87 91 96 90 90 95 100 100 100 100 100 100
95 95 91 92 94 95 94 95 92 92 93 95 98 95 93 93 91 94 94 95 96 96 83 84 87 78 78 85 91 89 92 91 91 95 100 100 99 95
91 92 94 94 95 91 85 81 80 74 69 70 72 72 71 72 78 83 83 80 77 74 80 85 84 81 79 86 88 82 83 81 80 79 88 98 90 86
78 81 80 73 67 64 65 69 70 68 68 67 66 67 68 69 70 71 73 74 72 71 75 88 85 78 73 70 73 78 63 62 68 76 70 67 46 33
70 68 63 54 51 51 50 52 54 53 49 51 57 62 65 66 68 67 69 67 67 71 70 70 70 66 66 62 62 56 55 55 60 59 39 21 19 21
57 54 48 45 44 44 44 43 46 47 49 50 52 58 64 66 62 57 56 61 62 60 61 60 57 55 51 52 52 52 56 54 41 22 17 17 18 20
41 42 43 44 43 44 45 48 53 58 58 61 66 66 63 62 53 44 49 58 57 53 52 63 57 56 48 44 48 50 42 23 17 14 18 21 21 20
Wind_Speed
61 62 61 60 59 58 56 52 50 51 52 53 52 48 48 48 49 50 52 53 55 56 57 59 60 61 64 65 67 68 68 69 72 72 74 76 77 80
64 64 64 62 59 58 56 54 51 50 50 54 52 51 51 52 53 54 55 57 59 61 61 62 63 64 66 68 70 72 74 75 75 77 77 80 81 84
67 66 65 65 63 60 58 57 54 51 46 54 55 57 55 56 56 57 59 60 62 64 65 66 68 70 72 73 75 77 77 78 76 79 82 83 86 87
70 69 70 69 65 64 63 62 60 59 55 51 58 61 61 63 62 63 65 68 69 71 70 72 75 77 79 80 80 81 83 83 84 86 87 89 90 91
73 73 73 72 71 71 70 68 69 68 66 64 61 65 68 71 72 72 76 77 77 78 79 81 82 83 84 84 86 86 85 87 95 91 92 93 93 94
75 76 76 76 74 74 76 73 74 74 71 70 69 70 72 75 79 82 82 84 84 85 85 86 86 87 89 87 89 87 90 94 95 100 97 96 100 100
79 79 79 78 77 76 78 78 78 77 77 78 78 78 79 81 84 87 88 88 88 88 91 92 93 93 93 92 92 95 94 95 96 99 101 103 104 105
82 83 83 82 82 84 82 83 84 85 85 85 85 85 85 87 90 93 95 93 90 93 97 97 98 94 97 96 97 98 100 101 103 105 105 105 106 107
86 87 88 88 89 90 89 88 88 89 91 92 91 92 95 94 93 86 93 99 100 100 105 102 102 99 102 102 104 106 107 108 108 107 107 106 108 108
93 93 94 95 95 94 94 96 96 96 98 97 98 98 98 102 95 97 101 114 109 108 108 112 108 106 108 110 111 111 110 110 110 109 110 111 113 118
98 99 99 99 100 99 99 99 100 102 102 103 104 104 104 106 107 107 107 112 110 107 111 115 114 119 114 114 117 117 115 115 116 116 117 120 120 119
103 102 102 102 101 101 102 102 103 103 103 105 106 107 109 110 111 113 113 112 115 111 114 119 118 119 118 116 117 118 118 120 121 122 121 119 118 119
105 105 106 106 107 107 108 109 110 111 113 114 114 115 116 117 117 117 118 119 119 119 120 121 119 120 122 120 117 119 119 120 119 119 121 121 121 119
112 114 115 116 116 117 119 117 116 115 114 115 115 116 116 117 117 119 120 119 121 121 122 121 120 120 121 121 122 119 119 117 114 114 111 110 111 111
111 111 108 110 114 114 115 116 116 115 113 113 112 113 114 114 115 115 118 120 119 117 117 116 113 113 113 108 102 99 101 100 95 92 91 91 93 95
92 91 89 89 90 91 92 91 91 91 90 90 90 91 92 93 92 92 92 92 89 89 90 90 90 90 89 90 90 90 90 90 89 90 91 92 95 97
83 83 83 83 84 85 86 87 88 88 89 89 90 89 90 90 90 90 91 91 91 92 94 97 97 96 94 92 90 90 90 89 90 93 94 95 98 100
91 93 94 94 95 95 96 96 97 98 98 98 98 98 98 98 97 96 97 97 96 95 94 94 95 96 95 93 93 93 95 96 96 97 98 99 101 101
94 95 96 97 98 99 100 101 103 104 104 104 103 103 103 102 101 101 101 101 101 101 101 101 102 102 100 98 99 99 100 100 100 97 97 99 103 102
98 99 102 104 104 106 106 106 107 108 109 109 109 108 108 108 107 105 104 103 103 104 103 104 106 104 103 102 101 102 102 100 97 98 99 99 97 94
102 102 102 103 104 105 105 106 106 108 109 108 108 108 109 109 109 110 110 108 106 105 105 106 106 105 103 102 102 103 101 98 96 97 96 92 88 85
106 107 107 107 107 107 108 109 109 109 109 109 109 110 111 112 112 113 112 111 110 110 109 107 106 105 103 102 100 97 96 96 94 90 87 82 79 77
109 109 110 111 111 110 110 110 109 110 111 110 111 113 115 116 117 116 113 112 110 109 108 107 104 103 99 95 92 94 93 90 86 81 77 74 72 70
Wind_Direction
280 283 284 284 286 286 286 284 283 284 286 287 288 287 288 289 291 292 293 293 293 293 293 294 296 296 296 298 299 299 300 301 302 303 303 304 304 304
281 282 284 283 284 285 283 283 283 285 288 289 289 290 289 289 288 288 288 289 290 291 293 294 295 294 295 297 298 299 301 302 303 303 303 303 303 303
278 280 281 281 282 281 282 281 281 281 282 289 291 290 287 286 286 286 286 286 287 287 289 290 291 291 293 296 297 296 298 299 300 300 301 302 302 303
278 279 279 280 280 280 281 279 278 277 277 275 282 285 286 285 284 285 285 284 285 285 287 288 290 292 295 296 295 296 298 300 300 299 302 303 303 303
278 279 279 280 280 280 280 281 281 280 280 278 276 278 282 284 284 284 286 286 286 286 287 288 290 292 293 295 297 298 299 300 298 299 302 303 304 305
277 278 278 279 280 281 283 283 284 282 283 283 282 281 280 282 283 284 285 284 285 287 290 291 292 292 294 296 296 296 296 297 299 302 303 305 305 306
274 275 276 278 280 281 283 282 283 282 286 285 284 284 285 285 284 285 287 287 287 290 290 291 292 292 293 294 293 295 297 299 300 301 302 303 304 303
272 273 274 275 275 277 280 281 282 283 285 286 286 285 284 285 286 285 285 286 289 289 289 289 290 291 294 294 293 295 297 299 300 300 301 302 302 303
270 271 273 274 275 277 279 279 280 280 282 283 284 284 284 286 286 285 282 288 290 289 287 287 291 293 294 296 297 297 298 298 298 298 299 300 301 304
270 271 270 272 274 275 277 278 279 280 280 281 282 283 284 285 283 281 282 288 291 293 292 293 293 293 294 295 294 294 294 295 296 297 298 300 302 302
270 271 272 273 274 275 277 277 278 278 279 280 280 281 281 282 283 282 282 284 287 287 286 289 289 291 292 292 292 293 295 296 297 298 300 300 299 299
272 273 274 274 275 275 275 275 276 276 277 278 278 279 279 279 280 281 282 283 284 285 284 285 286 287 288 291 291 293 295 295 296 295 295 295 296 297
277 278 278 279 279 279 279 280 280 281 282 282 282 282 282 283 283 283 283 283 284 284 284 285 285 287 288 289 289 289 289 290 290 291 291 292 293 294
278 278 278 278 279 279 279 280 279 279 279 279 279 280 280 280 280 280 281 282 283 283 283 284 284 284 285 286 286 287 287 288 289 289 289 290 292 293
279 278 278 276 276 276 276 276 278 279 280 280 280 280 280 279 280 279 280 282 284 285 285 284 284 283 284 286 288 289 288 289 292 292 292 293 294 295
276 277 277 277 277 276 277 278 279 280 281 282 282 282 282 282 282 282 283 284 285 285 286 286 286 288 290 291 292 292 292 292 293 294 295 297 297 298
277 278 278 279 280 280 281 281 282 282 282 283 283 283 283 284 284 285 285 286 287 287 288 288 289 289 290 290 291 291 292 293 294 295 295 295 296 298
276 277 278 279 279 279 279 280 279 280 280 280 280 280 280 281 281 282 282 283 284 284 285 285 286 286 286 288 289 290 290 291 291 292 293 293 293 296
277 278 278 279 279 280 280 281 281 281 282 283 283 282 281 281 282 283 283 283 283 282 283 284 285 285 286 287 289 289 290 290 290 291 291 292 293 294
277 279 279 279 279 279 279 280 280 281 281 281 281 282 282 281 282 282 283 283 282 282 283 284 284 284 285 286 287 288 289 290 289 290 290 292 291 289
279 280 280 281 282 282 282 282 283 282 282 282 283 283 282 282 282 282 282 282 282 282 282 284 284 284 285 286 287 288 288 288 289 290 290 289 288 285
281 283 283 283 283 283 282 282 283 283 283 283 283 283 283 282 282 282 282 282 282 283 283 283 283 284 284 285 286 286 286 288 289 289 287 286 285 283
280 281 282 283 283 283 283 282 282 282 283 283 282 281 280 281 281 281 282 282 282 282 281 283 283 283 284 283 284 285 286 286 287 285 284 284 282 281